{"data":{"norad_id":53606,"intl_designator":"2022-104U","name":"STARLINK-4590","alt_names":[],"object_type":"PAYLOAD","status":"ACTIVE","operator":null,"country":"US","launch_date":"2022-08-28","launch_site_code":"AFETR","launch_vehicle":null,"mission":null,"orbit_class":"UNKNOWN","rcs_meters":null,"size_class":null,"mass_kg":null,"dimensions":null,"purposes":["comms"],"wikipedia_slug":null,"has_3d_model":false,"image_url":null,"decayed_at":null,"tle_current":{"epoch":"2026-05-24T16:02:47.240448Z","epoch_age_seconds":93825,"freshness":"FRESH","line1":"1 53606U 22104U   26144.66860232  .00000292  00000+0  36455-4 0  9998","line2":"2 53606  53.2154 253.1499 0001192  87.0497 273.0632 15.08836798207101","mean_motion":15.08836798,"eccentricity":0.0001192,"inclination_deg":53.2154,"raan_deg":253.1499,"arg_perigee_deg":87.0497,"mean_anomaly_deg":273.0632,"bstar":3.6455e-5,"rev_number":20710,"period_min":95.437757211963,"perigee_km":538.92856370543,"apogee_km":540.57778872344,"semimajor_km":6917.8901762144,"source":"CELESTRAK","updated_at":"2026-05-25T13:38:17.476820Z"}}}